Precipitable_Water
1.73 1.77 1.75 1.67 1.67 1.58 1.47 1.42 1.37 1.33 1.35 1.37 1.15 0.98 0.87 0.86 0.83 0.87 0.97 0.90 0.99 1.19 1.41 1.59 1.39 1.20 1.11 1.02 0.89 0.97 1.07 1.04 1.06 1.11 1.09 1.04 0.94 0.87 0.81 0.79 0.80 0.81 0.82
1.61 1.72 1.63 1.71 1.70 1.71 1.54 1.51 1.40 1.32 1.36 1.30 1.19 1.12 0.97 0.87 0.90 0.95 0.98 0.95 0.84 0.95 1.13 1.53 1.35 1.25 1.17 1.15 1.02 0.99 1.06 1.07 1.04 1.01 0.97 0.94 0.87 0.84 0.78 0.76 0.78 0.79 0.79
1.43 1.49 1.65 1.55 1.51 1.67 1.69 1.64 1.55 1.42 1.30 1.24 1.20 1.23 1.14 1.05 0.90 0.93 0.99 1.01 0.89 0.90 1.02 1.28 1.37 1.36 1.29 1.23 1.07 0.96 1.05 1.04 1.04 0.99 0.95 0.88 0.85 0.83 0.77 0.75 0.77 0.77 0.78
1.32 1.39 1.44 1.67 1.47 1.60 1.70 1.61 1.58 1.44 1.34 1.24 1.17 1.22 1.25 1.25 1.07 0.92 0.94 1.02 0.92 0.96 1.04 1.11 1.41 1.45 1.38 1.30 1.18 0.97 0.95 0.94 0.91 0.88 0.89 0.84 0.81 0.77 0.74 0.71 0.72 0.73 0.77
1.18 1.25 1.33 1.53 1.73 1.68 1.71 1.65 1.59 1.49 1.42 1.32 1.24 1.22 1.21 1.25 1.19 1.03 0.94 1.01 1.01 0.98 1.22 1.41 1.52 1.53 1.44 1.38 1.28 1.13 1.06 1.03 0.98 0.90 0.85 0.83 0.79 0.71 0.74 0.70 0.69 0.71 0.72
1.04 1.12 1.23 1.32 1.60 1.57 1.61 1.64 1.55 1.50 1.46 1.41 1.30 1.22 1.23 1.20 1.19 1.16 0.99 0.98 1.14 1.11 1.37 1.74 1.70 1.54 1.47 1.42 1.32 1.21 1.18 1.15 1.06 0.93 0.85 0.81 0.70 0.70 0.73 0.69 0.69 0.69 0.70
0.86 1.05 1.14 1.21 1.27 1.45 1.36 1.42 1.49 1.43 1.43 1.46 1.34 1.21 1.20 1.21 1.13 1.13 1.17 0.98 0.99 1.23 1.53 1.42 1.32 1.37 1.34 1.28 1.21 1.22 1.24 1.22 1.13 1.04 0.91 0.80 0.69 0.66 0.70 0.69 0.68 0.68 0.67
0.69 0.86 1.01 1.13 1.18 1.27 1.41 1.37 1.32 1.35 1.37 1.43 1.29 1.23 1.00 1.06 1.14 1.10 1.13 1.13 0.99 0.98 1.10 1.14 1.19 1.33 1.25 1.24 1.15 1.10 1.09 1.17 1.12 1.07 0.95 0.84 0.79 0.64 0.65 0.69 0.67 0.67 0.66
0.60 0.70 0.88 0.99 1.14 1.12 1.29 1.38 1.37 1.39 1.24 1.32 1.39 1.23 1.02 0.89 1.03 1.15 1.07 1.09 1.12 1.07 1.01 1.02 1.03 1.01 1.09 1.10 1.08 1.09 1.04 1.11 1.12 1.09 0.97 0.89 0.88 0.81 0.71 0.67 0.64 0.64 0.65
0.51 0.61 0.72 0.91 0.97 1.09 1.14 1.22 1.38 1.38 1.33 1.20 1.31 1.34 1.29 1.16 0.97 0.90 1.08 1.08 1.07 1.14 1.14 1.07 1.02 0.97 0.95 0.95 1.01 1.01 1.00 1.01 1.05 1.08 1.08 1.00 0.96 0.92 0.86 0.80 0.76 0.72 0.68
0.49 0.53 0.63 0.75 0.90 0.97 1.03 1.12 1.22 1.29 1.41 1.32 1.34 1.29 1.28 1.23 1.17 1.01 0.90 1.03 1.12 1.07 1.14 1.14 1.14 1.04 0.97 0.90 0.87 0.93 0.89 0.86 0.98 1.12 1.13 1.12 1.05 1.00 0.94 0.90 0.88 0.80 0.78
0.45 0.49 0.55 0.66 0.80 0.90 0.92 1.00 1.12 1.18 1.31 1.27 1.30 1.30 1.25 1.15 1.07 1.05 0.95 1.01 1.04 1.10 1.13 1.12 1.15 1.17 1.11 1.04 1.01 0.99 0.97 0.95 1.04 1.10 1.09 1.14 1.17 1.09 1.06 1.05 1.00 0.94 0.91
0.35 0.45 0.49 0.57 0.69 0.85 0.87 0.92 1.00 1.10 1.19 1.28 1.24 1.22 1.26 1.25 1.32 1.19 1.06 1.02 1.01 1.11 1.14 1.19 1.12 1.16 1.20 1.12 1.07 1.03 1.01 1.05 1.01 1.05 1.12 1.16 1.20 1.23 1.15 1.15 1.12 1.04 0.99
0.31 0.38 0.47 0.50 0.60 0.71 0.88 0.84 0.90 1.00 1.10 1.25 1.23 1.22 1.21 1.21 1.20 1.19 1.13 1.11 0.97 0.99 1.05 1.10 1.22 1.18 1.14 1.12 1.09 1.07 1.05 1.07 1.06 1.04 1.04 1.10 1.12 1.13 1.20 1.19 1.14 1.09 1.08
0.32 0.33 0.39 0.46 0.51 0.64 0.76 0.86 0.84 0.89 1.01 1.08 1.19 1.26 1.23 1.22 1.21 1.19 1.14 1.13 1.04 0.87 0.87 1.05 1.09 1.25 1.26 1.23 1.18 1.13 1.13 1.12 1.12 1.03 1.01 0.95 0.98 1.05 1.11 1.14 1.11 1.11 1.13
0.32 0.32 0.33 0.40 0.47 0.53 0.66 0.79 0.79 0.85 0.91 1.00 1.12 1.16 1.19 1.26 1.21 1.22 1.13 1.08 1.05 0.97 0.86 1.06 1.10 1.17 1.25 1.26 1.26 1.25 1.23 1.22 1.20 1.21 1.21 1.13 1.05 1.10 1.13 1.14 1.20 1.25 1.24
0.32 0.32 0.32 0.34 0.41 0.48 0.55 0.68 0.76 0.78 0.83 0.90 1.00 1.12 1.14 1.23 1.22 1.23 1.18 1.11 1.04 1.03 0.95 1.05 1.11 1.19 1.19 1.21 1.23 1.26 1.23 1.19 1.22 1.20 1.22 1.22 1.21 1.25 1.25 1.23 1.22 1.23 1.24
0.32 0.33 0.33 0.33 0.36 0.42 0.51 0.55 0.70 0.76 0.76 0.81 0.91 1.02 1.06 1.12 1.14 1.15 1.18 1.11 1.06 1.05 1.02 0.99 1.10 1.12 1.12 1.18 1.17 1.16 1.19 1.21 1.22 1.25 1.25 1.25 1.24 1.23 1.22 1.18 1.19 1.20 1.18
0.29 0.33 0.33 0.33 0.33 0.36 0.44 0.52 0.58 0.72 0.75 0.77 0.84 0.93 1.00 1.02 1.02 1.10 1.14 1.10 1.10 1.09 1.06 1.03 1.01 1.12 1.09 1.11 1.07 1.12 1.11 1.13 1.20 1.22 1.22 1.24 1.18 1.14 1.14 1.11 1.09 1.08 1.08
0.27 0.33 0.33 0.33 0.34 0.34 0.36 0.46 0.54 0.61 0.72 0.77 0.80 0.87 0.91 0.97 0.95 1.03 1.06 1.09 1.08 1.08 1.04 0.97 0.95 0.97 1.00 1.04 1.05 0.98 0.97 1.06 1.08 1.13 1.17 1.15 1.14 1.14 1.11 1.09 1.05 1.03 1.02
0.27 0.33 0.33 0.34 0.34 0.34 0.34 0.38 0.51 0.58 0.62 0.68 0.76 0.80 0.84 1.11 1.05 1.00 0.99 0.95 1.03 0.99 1.00 0.95 0.88 0.87 0.88 0.88 0.87 1.00 0.96 1.02 1.03 1.03 1.03 1.03 1.06 1.06 1.07 1.06 1.01 0.97 0.97
0.26 0.33 0.33 0.34 0.34 0.35 0.36 0.38 0.45 0.54 0.59 0.64 0.71 0.74 0.81 0.90 1.06 1.05 1.01 0.97 0.98 0.95 0.92 0.90 0.87 0.79 0.81 0.87 0.92 0.91 0.91 0.87 0.81 1.05 0.98 0.99 1.04 1.00 1.02 1.02 1.01 1.00 0.96
0.26 0.33 0.33 0.33 0.34 0.36 0.37 0.39 0.42 0.50 0.56 0.59 0.65 0.70 0.78 0.84 0.94 0.97 1.01 0.99 0.94 1.05 0.99 0.91 0.79 0.78 0.80 0.87 0.91 0.86 0.88 0.91 0.89 0.99 1.00 0.92 1.01 0.96 1.03 1.02 0.98 0.91 0.86
0.26 0.33 0.33 0.34 0.36 0.37 0.39 0.42 0.44 0.46 0.53 0.59 0.63 0.69 0.72 0.81 0.91 0.91 0.90 0.94 0.99 1.00 0.96 0.93 0.90 0.85 0.91 0.94 0.92 0.92 0.93 0.99 1.03 1.01 1.03 0.85 0.97 0.91 0.93 0.89 0.85 0.82 0.82
0.27 0.33 0.34 0.35 0.36 0.37 0.40 0.42 0.44 0.45 0.46 0.55 0.62 0.71 0.73 0.77 0.84 0.91 0.86 0.86 0.93 0.97 1.04 1.00 0.95 0.98 0.97 1.01 1.02 1.02 0.94 0.91 0.88 0.91 0.99 0.93 0.91 0.86 0.83 0.78 0.80 0.80 0.78
0.29 0.34 0.34 0.36 0.37 0.38 0.42 0.44 0.46 0.45 0.44 0.50 0.60 0.64 0.69 0.74 0.75 0.85 0.83 0.82 0.86 0.98 1.02 1.02 0.98 1.00 1.04 1.02 1.06 1.05 0.99 0.91 0.87 0.84 0.94 0.86 0.84 0.79 0.64 0.73 0.74 0.77 0.78
Wind_Speed
31 35 36 38 36 35 35 34 32 30 29 26 25 23 23 23 23 21 21 22 24 25 23 24 23 21 19 19 19 19 18 17 15 14 12 10 9 8 8 7 7 7 7
30 34 40 39 40 41 40 36 34 32 31 29 26 25 24 24 24 23 21 21 23 25 27 26 25 22 21 20 20 19 20 18 16 15 14 13 11 10 10 9 9 8 8
37 35 35 45 44 47 42 36 36 34 32 30 29 27 26 25 24 25 24 22 22 24 28 29 27 25 23 22 21 21 20 18 17 16 16 15 14 13 12 12 11 10 10
39 37 37 34 40 50 41 37 37 34 34 32 30 29 27 26 25 25 25 24 23 23 26 30 28 27 24 24 22 22 21 20 19 18 18 17 16 16 15 14 13 12 12
41 41 38 33 32 45 42 42 38 35 33 33 32 30 29 28 27 26 24 25 24 22 24 29 29 27 25 24 24 23 22 21 20 19 19 19 18 18 17 16 16 15 14
45 43 42 40 25 33 34 38 38 36 34 33 33 33 31 30 29 27 26 25 26 24 24 23 28 27 26 25 23 24 23 23 22 20 20 20 20 19 19 18 18 17 16
47 46 46 45 45 36 44 36 34 37 35 35 34 33 33 32 32 30 28 27 27 27 26 28 28 28 28 27 25 25 25 25 24 23 22 21 20 20 21 20 20 19 19
49 48 47 47 46 40 36 42 39 41 37 36 35 34 32 32 34 33 31 30 29 29 30 31 31 31 31 30 29 29 28 27 27 26 25 23 22 21 22 22 22 22 21
51 51 50 49 46 47 37 41 44 37 38 38 37 34 31 32 32 33 33 32 32 30 31 32 32 33 32 32 31 32 31 31 30 29 27 26 25 24 23 23 23 24 24
51 52 53 50 52 48 48 43 45 45 43 41 41 42 37 35 32 30 35 34 34 33 33 32 33 34 33 33 33 32 32 32 31 29 28 28 27 26 26 25 25 25 25
51 52 53 54 51 52 50 47 47 49 46 43 44 43 39 37 35 33 31 33 34 34 34 34 34 33 32 32 31 30 30 30 30 30 29 28 28 27 27 27 27 26 26
52 52 53 54 54 53 54 52 49 46 50 49 48 43 43 41 37 35 32 33 33 34 34 35 35 34 34 32 31 31 30 29 29 30 29 30 29 29 28 28 28 28 28
52 53 53 54 56 53 53 55 52 51 48 51 50 49 47 44 39 37 36 34 34 34 34 34 34 35 34 33 32 31 32 32 32 32 32 31 31 31 31 30 30 30 29
50 53 54 54 56 58 52 55 57 53 53 51 52 52 50 48 46 44 39 35 33 34 34 33 35 34 34 34 32 32 32 33 33 33 33 34 33 33 33 32 32 31 31
48 51 54 56 56 57 58 51 56 58 55 53 54 52 51 51 49 48 45 42 37 35 35 34 33 35 35 35 34 33 33 33 34 33 34 34 35 35 35 35 34 34 34
47 49 52 55 57 57 59 58 57 58 59 56 53 56 53 51 50 50 48 45 43 39 36 36 36 34 35 35 35 35 34 34 34 34 35 37 36 36 36 36 36 36 36
45 47 50 53 56 58 59 58 59 59 60 59 57 57 56 53 51 50 49 48 46 44 39 36 36 35 34 34 34 35 34 33 34 34 32 33 33 33 34 34 35 36 36
42 44 47 51 55 58 60 62 58 59 60 61 60 57 57 55 54 51 50 50 48 46 43 39 37 37 36 36 35 35 35 35 35 33 34 32 33 33 32 31 32 33 34
38 41 44 47 51 56 59 62 65 59 59 60 61 60 60 58 57 55 52 50 48 47 46 43 39 38 38 37 35 34 34 34 34 34 34 34 33 33 32 32 33 34 35
33 37 40 44 47 51 58 60 63 67 62 61 62 62 59 63 60 57 56 55 51 48 47 45 42 40 39 38 39 37 35 34 34 34 34 34 34 35 36 35 35 36 37
29 32 36 40 44 48 51 59 60 64 67 66 65 65 64 54 61 60 58 57 54 52 49 47 45 43 42 41 40 39 39 37 37 36 37 36 36 35 35 35 36 37 38
26 27 30 35 39 44 49 54 60 61 65 67 65 67 66 65 56 59 58 57 57 54 52 49 47 46 45 43 41 41 40 39 38 39 37 36 35 35 35 36 37 38 39
23 25 26 29 34 39 45 50 57 61 63 67 67 68 67 66 65 61 59 58 56 56 54 52 51 49 46 45 43 42 42 41 40 38 38 37 37 38 37 38 39 39 39
21 22 23 25 28 32 39 45 51 58 61 64 66 68 70 69 63 63 60 59 57 57 56 53 52 50 47 45 45 43 43 41 39 39 38 37 37 37 37 37 38 39 40
20 21 22 23 25 27 31 37 44 50 59 63 65 65 68 67 67 64 61 59 58 57 55 54 51 49 47 45 44 43 41 40 38 38 38 37 36 36 37 38 39 39 40
19 20 21 22 23 22 25 28 35 39 51 58 63 64 68 69 69 66 65 61 57 55 50 50 50 48 46 45 44 43 41 39 38 37 38 37 36 36 36 37 37 37 38
Wind_Direction
250 240 237 233 232 230 228 227 226 226 225 227 226 224 223 221 221 221 221 220 219 218 216 212 212 213 211 209 209 207 207 207 211 215 219 225 234 237 238 239 242 248 255
254 246 241 237 236 233 227 225 225 224 225 226 225 224 223 222 223 222 222 224 222 221 219 215 213 215 213 212 210 210 211 214 217 221 226 234 240 239 242 244 246 252 258
251 253 248 242 240 237 225 223 224 224 224 224 224 224 224 224 224 223 224 225 223 223 220 216 215 216 216 216 215 212 213 218 222 226 233 239 241 244 245 246 249 254 258
250 254 249 256 242 233 227 225 221 223 224 223 224 225 225 225 225 225 224 224 224 224 218 215 215 216 218 217 216 215 218 223 228 234 239 241 244 247 245 247 250 254 258
250 250 250 255 245 228 226 222 222 222 223 223 224 225 225 226 226 226 225 225 222 222 217 215 214 215 218 216 219 220 223 228 234 239 239 242 246 248 245 248 251 254 258
249 249 248 246 243 232 225 218 221 224 225 225 225 226 226 227 227 227 227 224 222 222 218 209 210 216 217 216 222 226 229 232 237 239 242 244 248 246 246 248 251 254 258
248 248 246 245 244 252 237 228 229 227 225 225 227 228 227 228 228 228 228 226 224 222 215 214 220 219 221 225 229 232 235 237 239 242 244 246 248 246 247 249 252 255 259
247 246 245 245 242 243 243 231 234 231 231 226 227 225 227 229 228 228 229 228 226 225 223 225 225 226 228 231 236 238 240 240 243 244 244 246 246 247 248 251 253 256 259
246 245 245 244 243 239 245 236 233 228 228 228 225 225 227 229 227 229 229 229 228 228 228 228 229 231 233 237 241 242 243 243 244 244 242 245 246 249 251 253 255 258 260
246 244 242 243 241 241 240 240 235 235 234 230 228 229 229 229 228 229 229 230 230 230 230 231 232 234 237 240 242 243 244 244 243 241 241 245 247 250 252 254 257 259 262
246 245 242 240 241 240 239 239 238 233 231 231 230 221 227 230 230 229 229 227 230 232 232 233 234 235 237 240 240 241 241 241 240 239 242 245 248 252 254 256 258 260 263
246 244 243 240 239 240 238 236 237 236 233 232 231 230 229 229 229 228 229 228 229 230 232 233 234 236 237 239 239 239 240 240 238 239 244 248 248 252 255 257 258 261 264
247 244 243 241 239 238 238 236 236 234 234 230 229 230 230 230 229 230 230 230 231 232 233 235 236 237 238 238 239 241 240 240 242 244 247 250 251 253 255 257 258 262 263
248 246 243 241 239 237 239 236 233 234 231 232 231 231 231 231 232 232 231 229 230 232 234 236 236 238 238 238 239 240 241 242 244 247 249 251 252 254 256 258 259 261 262
250 246 244 242 240 238 235 237 233 233 233 235 231 230 231 231 231 231 231 231 232 233 234 236 238 237 237 239 240 241 243 245 246 247 251 252 252 255 257 259 259 260 263
251 248 245 242 240 238 236 237 235 233 233 233 234 230 230 230 230 231 231 231 232 234 237 236 237 238 238 239 240 242 244 247 249 251 253 253 254 256 257 259 259 261 263
252 249 246 243 240 238 236 235 235 234 233 232 233 231 229 229 230 231 230 232 232 233 236 237 236 237 237 239 241 242 245 247 248 252 252 252 255 256 257 258 259 262 264
253 250 247 244 241 238 236 234 235 234 232 232 231 232 230 229 229 230 230 231 232 233 234 235 236 236 238 240 242 244 246 249 249 251 251 252 254 255 256 260 261 263 265
255 251 248 246 242 240 237 235 233 234 233 230 231 231 230 230 230 229 229 230 231 233 233 235 236 237 239 239 241 246 247 247 248 250 250 253 253 254 259 261 264 266 268
259 255 251 247 244 242 238 236 234 232 234 232 230 230 232 230 230 229 230 231 232 233 232 234 236 237 239 240 243 244 245 248 248 249 252 255 256 258 260 263 266 268 269
263 260 255 250 246 243 241 235 234 233 233 234 233 230 229 231 229 229 230 231 231 232 233 233 236 237 240 242 243 245 246 246 250 252 256 256 258 259 260 263 266 269 270
267 266 261 255 250 245 242 239 234 233 232 231 231 230 229 229 229 228 230 230 231 231 233 233 235 238 240 241 242 243 244 248 250 252 253 254 256 260 263 265 269 270 272
271 271 268 261 255 250 246 240 235 233 233 231 231 229 228 228 230 229 230 230 231 230 232 233 236 239 239 240 241 242 245 246 251 251 250 254 259 262 264 267 269 271 273
273 275 271 267 263 256 249 241 237 233 232 231 230 229 227 227 228 228 229 229 230 231 232 233 236 238 239 240 242 243 245 244 247 250 251 257 259 261 264 267 270 273 275
277 279 277 273 269 262 252 243 238 236 233 230 228 227 225 226 227 227 227 228 229 231 231 234 236 236 238 238 240 241 241 243 247 250 252 256 259 262 265 269 272 275 277
280 285 282 277 271 262 252 246 239 240 234 229 228 228 227 226 226 226 227 226 227 226 229 230 231 234 235 236 237 238 240 240 246 251 252 255 258 262 268 270 273 275 277